Dewpoint
53 51 50 47 46 44 43 44 45 45 44 44 44 43 44 44 44 43 42 41 41 41
54 52 50 49 48 46 44 44 45 45 44 44 43 44 45 45 43 42 41 41 40 39
54 53 52 50 48 47 46 45 45 45 44 44 44 44 44 43 42 41 40 39 37 37
54 52 51 49 48 48 48 46 45 44 44 43 43 43 42 41 39 37 37 37 36 37
52 51 50 48 48 48 47 46 46 44 43 43 42 41 39 37 36 37 35 30 26 25
51 51 50 50 48 47 47 46 44 43 42 41 39 37 36 36 35 31 26 24 23 23
50 50 50 49 47 47 47 45 43 41 39 38 36 35 32 27 24 24 24 26 25 26
48 49 48 47 47 46 44 42 40 37 33 31 28 25 25 25 26 24 25 28 27 29
46 45 45 44 44 43 43 42 41 39 36 35 34 36 34 29 25 24 25 26 25 29
44 44 43 43 43 41 41 41 40 38 38 37 37 38 36 32 26 26 26 26 26 25
43 41 40 40 39 38 38 37 36 36 36 36 35 37 35 31 25 25 26 26 25 25
37 37 37 36 36 36 35 35 34 34 33 32 31 36 33 28 27 26 25 26 27 27
35 34 34 34 34 34 33 32 32 32 33 32 30 33 32 28 25 25 25 27 28 30
35 35 33 33 32 32 31 31 31 31 32 31 31 30 31 29 25 24 24 25 26 28
Lifted_Index
-2 -2 -1 -1 -1 -1 0 1 4 7 8 9 10 11 11 11 11 11 11 11 10 10
-1 -2 -2 -1 -1 -1 0 1 3 6 8 9 10 10 11 10 11 11 11 10 10 10
-1 -1 -2 -2 -1 -1 0 2 4 6 8 9 10 10 10 10 10 10 10 10 10 10
-1 -1 -1 -1 -1 -1 0 3 5 7 9 10 10 10 10 10 10 10 10 10 10 10
-1 -1 -0 -0 0 0 1 3 6 8 9 10 11 11 11 11 10 10 9 9 9 10
-1 -1 -0 0 0 1 2 4 6 8 9 10 11 11 11 11 10 10 9 9 10 11
-1 -1 -0 -0 0 1 3 6 8 9 10 10 11 11 11 11 10 10 10 11 12 13
0 1 1 1 1 2 4 7 9 10 10 11 11 11 11 11 10 10 11 12 14 15
2 2 2 2 2 3 4 7 9 10 11 11 11 11 11 10 10 11 12 14 16 16
3 3 3 3 3 4 5 7 8 9 10 11 11 10 10 11 11 12 14 16 17 17
4 4 4 4 4 5 6 7 8 9 9 10 10 11 11 12 13 15 16 17 17 17
4 4 4 4 5 6 7 8 9 9 10 10 11 13 15 15 15 16 17 17 17 17
4 4 5 5 6 7 8 9 9 10 11 12 13 15 17 17 16 16 16 17 17 17
5 5 5 6 7 8 8 9 10 11 13 13 15 16 17 17 16 16 16 16 16 17